Location: Kalberh�ni
(46.4610°N, 7.2453°E)
Time: 06:56:01
(UTC+00:00)

Cosmos 1606 Rocket - Pass Details

Date: 23 October 2021
Orbit: 601 x 633 km, 82.5° (Epoch: 30 November)

Event Time Altitude Azimuth Distance (km) Brightness Sun altitude
Rises 04:27:34 0° 8° (N) 2,913 7.1 -16.5°
Reaches altitude 10° 04:31:05 10° 37° (NE) 1,993 6.7 -15.9°
Maximum altitude 04:33:03 13° 64° (ENE) 1,809 6.9 -15.6°
Drops below altitude 10° 04:35:01 10° 91° (E) 1,977 7.6 -15.2°
Sets 04:38:27 0° 120° (ESE) 2,868 8.1 -14.6°
